Total_Precipitation_Accumulation
0.67 0.70 0.74 0.74 0.73 0.75 0.81 0.85 0.85 0.80 0.82 0.81 0.60 0.49 0.48 0.49 0.51 0.44 0.48 0.34 0.18 0.13 0.13 0.13 0.14 0.18 0.27 0.45 0.64 0.78 0.98 1.12 1.18 1.22 1.22 1.26 1.29 1.32
0.79 0.87 0.86 0.83 0.77 0.79 0.82 0.89 0.96 0.93 0.82 0.67 0.54 0.47 0.45 0.44 0.42 0.33 0.31 0.26 0.16 0.12 0.11 0.12 0.13 0.15 0.20 0.34 0.49 0.62 0.78 0.91 1.03 1.13 1.18 1.21 1.24 1.30
0.73 0.83 0.87 0.85 0.83 0.81 0.83 0.82 0.84 0.90 0.78 0.61 0.52 0.51 0.50 0.52 0.47 0.36 0.27 0.22 0.18 0.14 0.10 0.09 0.11 0.17 0.25 0.32 0.42 0.51 0.58 0.68 0.82 0.96 1.07 1.16 1.20 1.23
0.74 0.76 0.76 0.77 0.81 0.77 0.76 0.74 0.75 0.81 0.72 0.59 0.53 0.52 0.54 0.56 0.53 0.44 0.35 0.27 0.25 0.17 0.12 0.10 0.10 0.13 0.17 0.20 0.29 0.43 0.53 0.59 0.64 0.70 0.78 0.90 1.02 1.11
0.64 0.63 0.62 0.63 0.66 0.68 0.70 0.63 0.59 0.62 0.64 0.61 0.61 0.59 0.56 0.51 0.49 0.49 0.45 0.42 0.32 0.24 0.16 0.13 0.12 0.13 0.13 0.14 0.19 0.29 0.43 0.56 0.63 0.68 0.73 0.79 0.87 0.95
0.53 0.49 0.51 0.53 0.55 0.56 0.61 0.58 0.54 0.56 0.59 0.58 0.58 0.60 0.56 0.50 0.48 0.51 0.53 0.56 0.46 0.34 0.28 0.23 0.19 0.16 0.14 0.12 0.13 0.19 0.31 0.48 0.64 0.71 0.77 0.87 0.96 0.97
0.46 0.41 0.41 0.40 0.42 0.46 0.49 0.48 0.46 0.47 0.46 0.46 0.47 0.47 0.46 0.44 0.42 0.42 0.50 0.62 0.59 0.45 0.40 0.39 0.36 0.31 0.27 0.22 0.15 0.13 0.21 0.36 0.57 0.72 0.80 0.90 1.02 1.08
0.36 0.35 0.33 0.30 0.33 0.35 0.33 0.36 0.37 0.34 0.36 0.42 0.39 0.38 0.36 0.34 0.33 0.39 0.50 0.55 0.65 0.66 0.60 0.59 0.54 0.49 0.41 0.31 0.23 0.15 0.14 0.23 0.35 0.52 0.67 0.81 0.92 1.06
0.26 0.26 0.23 0.23 0.27 0.27 0.25 0.22 0.23 0.23 0.26 0.34 0.37 0.32 0.30 0.28 0.29 0.37 0.52 0.67 0.77 0.82 0.78 0.77 0.64 0.56 0.51 0.43 0.33 0.21 0.15 0.13 0.19 0.28 0.38 0.54 0.67 0.79
0.21 0.22 0.22 0.21 0.22 0.22 0.19 0.15 0.14 0.15 0.17 0.21 0.26 0.30 0.30 0.29 0.27 0.28 0.34 0.49 0.67 0.76 0.79 0.89 0.87 0.77 0.72 0.64 0.52 0.35 0.24 0.18 0.18 0.20 0.23 0.29 0.41 0.53
0.19 0.20 0.20 0.19 0.22 0.19 0.16 0.16 0.15 0.15 0.16 0.19 0.20 0.24 0.27 0.26 0.24 0.18 0.17 0.18 0.25 0.32 0.35 0.53 0.72 0.80 0.87 0.86 0.74 0.59 0.43 0.31 0.25 0.27 0.28 0.29 0.35 0.44
0.25 0.24 0.23 0.21 0.20 0.17 0.16 0.18 0.17 0.15 0.14 0.15 0.16 0.18 0.18 0.20 0.19 0.15 0.11 0.11 0.11 0.14 0.12 0.17 0.30 0.42 0.59 0.68 0.68 0.65 0.59 0.53 0.46 0.37 0.31 0.31 0.41 0.44
0.31 0.31 0.26 0.23 0.20 0.18 0.18 0.20 0.20 0.18 0.18 0.17 0.16 0.16 0.16 0.17 0.15 0.13 0.12 0.10 0.10 0.12 0.11 0.13 0.17 0.21 0.29 0.40 0.49 0.53 0.57 0.59 0.57 0.54 0.48 0.43 0.45 0.51
0.39 0.36 0.34 0.27 0.23 0.22 0.22 0.23 0.24 0.23 0.23 0.22 0.19 0.17 0.15 0.14 0.13 0.11 0.11 0.10 0.10 0.11 0.11 0.11 0.17 0.19 0.20 0.25 0.32 0.35 0.41 0.53 0.64 0.72 0.68 0.63 0.60 0.65
0.48 0.46 0.43 0.37 0.29 0.26 0.28 0.28 0.25 0.24 0.26 0.25 0.21 0.15 0.11 0.10 0.11 0.12 0.11 0.10 0.09 0.08 0.06 0.05 0.11 0.17 0.19 0.22 0.24 0.26 0.31 0.41 0.51 0.66 0.79 0.83 0.80 0.78
0.56 0.54 0.49 0.47 0.40 0.34 0.34 0.31 0.27 0.30 0.31 0.27 0.22 0.18 0.14 0.12 0.12 0.11 0.09 0.07 0.06 0.06 0.04 0.04 0.06 0.10 0.17 0.20 0.24 0.26 0.29 0.36 0.39 0.46 0.65 0.86 1.02 1.09
0.71 0.69 0.62 0.53 0.47 0.42 0.38 0.35 0.34 0.39 0.38 0.34 0.28 0.23 0.19 0.15 0.13 0.11 0.08 0.06 0.04 0.03 0.03 0.03 0.04 0.07 0.09 0.10 0.17 0.23 0.27 0.30 0.29 0.29 0.36 0.55 0.80 1.00
0.80 0.74 0.66 0.56 0.47 0.44 0.44 0.42 0.40 0.39 0.36 0.34 0.31 0.26 0.21 0.16 0.13 0.11 0.09 0.07 0.05 0.03 0.02 0.02 0.03 0.04 0.08 0.10 0.06 0.10 0.16 0.18 0.20 0.25 0.31 0.35 0.47 0.57
0.77 0.72 0.62 0.55 0.48 0.44 0.43 0.41 0.39 0.37 0.34 0.32 0.30 0.27 0.23 0.16 0.13 0.11 0.08 0.07 0.06 0.03 0.02 0.02 0.02 0.03 0.04 0.08 0.13 0.07 0.05 0.07 0.10 0.18 0.29 0.29 0.31 0.33
0.72 0.70 0.61 0.52 0.47 0.45 0.42 0.42 0.39 0.37 0.33 0.30 0.29 0.26 0.23 0.17 0.12 0.10 0.07 0.05 0.04 0.03 0.02 0.01 0.02 0.02 0.04 0.05 0.08 0.12 0.11 0.07 0.07 0.10 0.17 0.21 0.22 0.18
0.69 0.65 0.57 0.49 0.45 0.44 0.41 0.39 0.37 0.34 0.30 0.28 0.28 0.26 0.22 0.16 0.11 0.08 0.06 0.04 0.03 0.02 0.02 0.01 0.01 0.01 0.02 0.04 0.07 0.09 0.12 0.12 0.11 0.11 0.12 0.16 0.20 0.23
0.60 0.57 0.54 0.47 0.42 0.40 0.37 0.34 0.33 0.29 0.26 0.25 0.25 0.24 0.21 0.15 0.09 0.06 0.04 0.03 0.03 0.02 0.02 0.01 0.01 0.01 0.03 0.06 0.08 0.08 0.09 0.13 0.15 0.13 0.12 0.11 0.13 0.16
0.49 0.47 0.46 0.41 0.36 0.32 0.29 0.26 0.25 0.24 0.22 0.21 0.20 0.19 0.18 0.14 0.09 0.05 0.03 0.03 0.03 0.02 0.02 0.01 0.00 0.00 0.01 0.03 0.06 0.08 0.10 0.13 0.18 0.23 0.23 0.14 0.06 0.04